This is the latest recevied weather packets stored in our database for station/object DL3CSM-13. If no packets are shown the sender has not sent any weather packets the latest 10 day(s).
| Time | Temp. | Humidity | Pressure | Rain* | Wind** | Luminosity | Snow |
|---|---|---|---|---|---|---|---|
| 1777091411 | 3.33° C | 72% | 1018.5 hPa | 0 mm | - | - | - |
| 1777090512 | 2.78° C | 72% | 1018.5 hPa | 0 mm | - | - | - |
| 1777089611 | 3.33° C | 72% | 1018.4 hPa | 0 mm | - | - | - |
| 1777088711 | 3.33° C | 70% | 1018.4 hPa | 0 mm | - | - | - |
| 1777087812 | 3.33° C | 69% | 1018.4 hPa | 0 mm | - | - | - |
| 1777086911 | 3.89° C | 69% | 1018.3 hPa | 0 mm | - | - | - |
| 1777086012 | 3.89° C | 68% | 1018.3 hPa | 0 mm | - | - | - |
| 1777084211 | 4.44° C | 68% | 1018.5 hPa | 0 mm | - | - | - |
| 1777083311 | 4.44° C | 67% | 1018.4 hPa | 0 mm | - | - | - |
| 1777081511 | 5° C | 65% | 1018.5 hPa | 0 mm | - | - | - |
| 1777079711 | 5° C | 62% | 1018.5 hPa | 0 mm | - | - | - |
| 1777078811 | 5.56° C | 62% | 1018.6 hPa | 0 mm | - | - | - |
| 1777077911 | 5.56° C | 60% | 1018.6 hPa | 0 mm | - | - | - |
| 1777077011 | 6.11° C | 59% | 1018.8 hPa | 0 mm | - | - | - |
| 1777076111 | 6.11° C | 59% | 1018.8 hPa | 0 mm | - | - | - |
| 1777075212 | 6.11° C | 57% | 1018.8 hPa | 0 mm | - | - | - |
| 1777074311 | 6.11° C | 56% | 1018.8 hPa | 0 mm | - | - | - |
| 1777073411 | 6.67° C | 56% | 1018.9 hPa | 0 mm | - | - | - |
| 1777071612 | 6.67° C | 55% | 1019.1 hPa | 0 mm | - | - | - |
| 1777070711 | 7.22° C | 54% | 1019.1 hPa | 0 mm | - | - | - |
| 1777068911 | 7.22° C | 53% | 1019.2 hPa | 0 mm | - | - | - |
| 1777068011 | 7.78° C | 53% | 1019.3 hPa | 0 mm | - | - | - |
| 1777067111 | 8.33° C | 50% | 1019.3 hPa | 0 mm | - | - | - |
| 1777066211 | 8.33° C | 50% | 1019.3 hPa | 0 mm | - | - | - |
| 1777065311 | 8.89° C | 49% | 1019.3 hPa | 0 mm | - | - | - |
* Rain latest hour (hover to see other rain measurements)
** Current wind speed in m/s (hover to see current wind gust speed)